Regional Weather Roundup
Issued by NWS

Home | Current Version | Previous Version | Graphics & Text | Print | Product List | Glossary On
Versions: 1 2 3 4 5 6 7 8 9 10 11 12 13 14 15 16 17 18 19 20 21 22 23 24 25 26 27 28 29 30 31 32 33 34 35 36 37 38 39 40 41 42 43 44 45 46 47 48 49 50
000
ASUS43 KLOT 281509
RWRIL

ILLINOIS REGIONAL WEATHER ROUNDUP
NATIONAL WEATHER SERVICE CHICAGO/ROMEOVILLE IL
1000 AM CDT SUN MAY 28 2017

NOTE: "FAIR" INDICATES FEW OR NO CLOUDS BELOW 12,000 FEET WITH NO
SIGNIFICANT WEATHER AND/OR OBSTRUCTIONS TO VISIBILITY.

* THESE STATIONS ARE NOT UNDER NWS QUALITY CONTROL. THEY ALSO MAY NOT
  REPORT WEATHER SUCH AS PRECIPITATION OR FOG.

ILZ001-002-007-009-015-016-024-281600-
NORTHWEST ILLINOIS

CITY           SKY/WX    TMP DP  RH WIND       PRES   REMARKS
MOLINE         SUNNY     71  54  54 NW9G18    29.79F
STERLING*      PTSUNNY   66  61  84 N10       29.79S
SAVANNA*       PTSUNNY   64  59  85 W5        29.80S
$$

ILZ003-004-008-010-011-017-018-281600-
NORTH CENTRAL ILLINOIS

CITY           SKY/WX    TMP DP  RH WIND       PRES   REMARKS
ROCKFORD       CLOUDY    62  57  83 NE12      29.78F
FREEPORT*      CLOUDY    60  57  89 N5        29.81S
ROCHELLE*      RAIN      61  60  96 N8        29.78F
DE KALB*       CLOUDY    65  60  85 N7        29.77F
PERU*          CLOUDY    66  59  76 N14       29.77S
$$

ILZ005-006-012>014-019>023-281600-
NORTHEAST ILLINOIS

CITY           SKY/WX    TMP DP  RH WIND       PRES   REMARKS
CHICAGO-OHARE  PTSUNNY   72  61  68 W9        29.73F
CHICAGO-MIDWAY CLOUDY    73  64  73 W7        29.73F
AURORA         CLOUDY    68  63  84 NW12      29.76F HAZE
LANSING*       CLOUDY    72  66  82 W6        29.73F
JOLIET*        CLOUDY    72  65  77 W6        29.74F
WAUKEGAN       CLOUDY    64  58  80 N8        29.76S
DUPAGE AIRPORT CLOUDY    70  64  81 NW9       29.75F HAZE
KANKAKEE*      MOSUNNY   76  64  67 CALM      29.73F
WHEELING       CLOUDY    69  63  81 NW13      29.76S
MORRIS*        PTSUNNY   71  64  78 NW13G23   29.73F
ROMEOVILLE*    CLOUDY    70  66  87 NW7       29.75S
NORTHERLY ISL    N/A     62  56  80 N6          N/A
$$

LMZ740>746-281600-
SOUTHERN LAKE MICHIGAN

STATION/POSITION SKY/WX   TEMP    WIND        PRES    VSBY  WAVE
                          AIR SEA DIR/SP/G                  HT/PER
                          (F)     (DEG/KT/KT) (MB)    (MI)  (FT/S)
SOUTHERN BUOY              55 50  120/  2/  2 1007.6          0
WILMETTE HARBOR            53 55                N/A           0
HARRISON CRIB              61      10/  8/  8   N/A
BURNHAM HARBOR             64     340/  2/  7   N/A
CALUMET HARBOR             66      10/  3/  4 1006.4F
BURNS HARBOR               61     350/  4/  5 1007.5S
MICHIGAN CITY              67     360/  3/  3   N/A
MICHIGAN CITY 6N           59 57  350/  6/  6   N/A           0
ST. JOSEPH                 64 60  360/  2/  4 1006.6          0
$$

ILZ025>027-034>036-040-047-049-050-058-095>099-281600-
WEST-CENTRAL ILLINOIS

CITY           SKY/WX    TMP DP  RH WIND       PRES   REMARKS
QUINCY         SUNNY     69  58  67 NW14      29.83R
GALESBURG*     MOSUNNY   68  58  71 NW12      29.80S
MACOMB*        SUNNY     69  60  74 N15G22    29.83S
JACKSONVILLE*  CLOUDY    64  63  94 W6        29.81S FOG
PITTSFIELD*    MOSUNNY   70  62  75 NW12      29.84R
$$

ILZ028>032-037-038-041>044-048-051>054-059>061-281600-
CENTRAL ILLINOIS

CITY           SKY/WX    TMP DP  RH WIND       PRES   REMARKS
PONTIAC        PTSUNNY   73  67  83 W9        29.75S
BLOOMINGTON    PTSUNNY   73  64  73 NW12      29.77S
DECATUR        CLOUDY    69  63  81 W12       29.77R
PEORIA         CLOUDY    69  62  78 N9G17     29.78R
LACON*         CLOUDY    66  62  85 N7        29.77R
LINCOLN*       CLOUDY    72  66  80 NW5       29.77S
SPRINGFIELD    CLOUDY    70  65  84 NW10      29.79R
TAYLORVILLE    CLOUDY    69  63  82 W14       29.79S
$$

ILZ033-039-045-046-055>057-062-063-281600-
EAST-CENTRAL ILLINOIS

CITY           SKY/WX    TMP DP  RH WIND       PRES   REMARKS
CHAMPAIGN      CLOUDY    71  64  78 W12       29.76R
RANTOUL*       CLOUDY    71  67  89 W8        29.75R
MATTOON        CLOUDY    67  64  90 W14G22    29.77R
PARIS*         PTSUNNY   71  66  82 SW17      29.77R
$$

ILZ079-100>102-281600-
SOUTHWEST ILLINOIS

CITY           SKY/WX    TMP DP  RH WIND       PRES   REMARKS
ALTON          CLOUDY    64  61  88 W12       29.83R
BELLEVILLE     MOSUNNY   69  63  79 W14       29.83S
CAHOKIA*       CLOUDY    69  61  75 W7        29.84R
SPARTA*        CLOUDY    68  62  82 SW13      29.86S
$$

ILZ064>066-069>071-074>076-080>082-084>086-088>090-092>094-281600-
SOUTH-CENTRAL ILLINOIS

CITY           SKY/WX    TMP DP  RH WIND       PRES   REMARKS
CARBONDALE     CLOUDY    68  65  90 SW16G23   29.85R
CAIRO*         CLOUDY    67  63  87 W9        29.88F
EFFINGHAM*     CLOUDY    70  65  83 SW13G21   29.79S
MARION         CLOUDY    68  68 100 SW17      29.86R
MT. VERNON       N/A     69  63  81 SW13      29.83R
CENTRALIA*     CLOUDY    70  64  82 W15G22    29.82R
SALEM*         CLOUDY    71  63  73 SW16      29.81R
METROPOLIS*    CLOUDY    68  64  85 W12G17    29.87S
$$

ILZ067-068-072-073-078-083-087-091-281600-
SOUTHEAST ILLINOIS

CITY           SKY/WX    TMP DP  RH WIND       PRES   REMARKS
LAWRENCEVILLE  PTSUNNY   72  62  71 W14G23    29.79S
FLORA*         CLOUDY    72  63  72 W18       29.81R
FAIRFIELD*     CLOUDY    70  63  78 SW10G16   29.80S
HARRISBURG*    CLOUDY    68  63  85 W14G24    29.85R
ROBINSON*      CLOUDY    71  62  73 SW14      29.79F
CARMI*         PTSUNNY   71  63  75 SW15G21   29.82S
$$

ABBREVIATIONS USED IN REMARKS
   TC - TEMPERATURE IN CELSIUS
  WCI - WIND CHILL INDEX
   HX - HEAT INDEX
  VSB - VISIBILITY
$$





USA.gov is the U.S. government's official web portal to all federal, state and local government web resources and services.